Location: Newark
(48.3453°N, 0.5589°E)
Time: 02:35:18
(UTC+00:00)

Transit 4A - All Passes

Search period start: 11 December 2019 00:00
Search period end: 21 December 2019 00:00
Orbit: 870 x 975 km, 66.8° (Epoch: 09 December)

Date Brightness Start Highest point End Pass type
(mag) Time Alt. Az. Time Alt. Az. Time Alt. Az.
11 Dec - 01:38:19 10° NW 01:44:12 74° WSW 01:49:59 10° SSE night (unlit)
11 Dec - 03:26:57 10° WNW 03:29:30 13° WSW 03:32:02 10° SW night (unlit)
11 Dec - 15:06:01 10° SE 15:08:58 14° ESE 15:11:53 10° ENE daylight
11 Dec - 16:48:11 10° SSW 16:54:20 73° ESE 17:00:22 10° NE visible
11 Dec - 18:35:54 10° W 18:41:15 30° NW 18:46:30 10° NNE visible
11 Dec - 20:26:37 10° NW 20:29:40 14° NNW 20:32:40 10° NNE visible
11 Dec - 22:15:22 10° NNW 22:18:42 15° NNE 22:22:01 10° NE night (unlit)
12 Dec - 00:01:25 10° NNW 00:06:53 37° NE 00:12:14 10° ESE night (unlit)
12 Dec - 01:47:46 10° NW 01:53:27 52° WSW 01:59:02 10° SSE night (unlit)
12 Dec - 15:13:35 10° SSE 15:17:58 21° ESE 15:22:18 10° ENE daylight
12 Dec - 16:57:28 10° SW 17:03:40 82° NW 17:09:44 10° NE visible
12 Dec - 18:46:01 10° W 18:50:55 24° NNW 18:55:43 10° NNE visible
12 Dec - 20:36:53 10° NNW 20:39:35 13° N 20:42:15 10° NNE visible
12 Dec - 22:24:43 10° NNW 22:28:33 17° NNE 22:32:21 10° ENE night (unlit)
13 Dec - 00:10:42 10° NNW 00:16:25 48° NE 00:22:01 10° ESE night (unlit)
13 Dec - 01:57:20 10° NW 02:02:37 36° WSW 02:07:51 10° S night (unlit)
13 Dec - 15:21:50 10° SSE 15:27:03 29° ESE 15:32:11 10° NE daylight
13 Dec - 17:06:59 10° SW 17:13:04 61° NW 17:19:03 10° NNE visible
13 Dec - 18:56:16 10° WNW 19:00:39 20° NNW 19:04:59 10° NNE visible
13 Dec - 20:46:57 10° NNW 20:49:31 13° N 20:52:04 10° NNE visible
13 Dec - 22:34:00 10° NNW 22:38:21 20° NNE 22:42:38 10° ENE night (unlit)
14 Dec - 00:20:00 10° NNW 00:25:52 66° NE 00:31:38 10° SE night (unlit)
14 Dec - 02:07:04 10° NW 02:11:44 25° WSW 02:16:21 10° SSW night (unlit)
14 Dec - 15:30:27 10° S 15:36:12 42° ESE 15:41:49 10° NE daylight
14 Dec - 17:16:40 10° WSW 17:22:33 46° NW 17:28:19 10° NNE visible
14 Dec - 19:06:37 10° WNW 19:10:28 17° NNW 19:14:16 10° NNE visible
14 Dec - 20:56:46 10° NNW 20:59:28 13° N 21:02:07 10° NNE visible
14 Dec - 22:43:16 10° NNW 22:48:05 25° NNE 22:52:50 10° E night (unlit)
15 Dec - 00:29:19 10° NW 00:35:15 89° ENE 00:41:03 10° SSE night (unlit)
15 Dec - 02:17:08 10° WNW 02:20:45 17° WSW 02:24:22 10° SW night (unlit)
15 Dec - 13:59:34 10° ESE 14:00:15 10° E 14:00:56 10° E daylight
15 Dec - 15:39:22 10° SSW 15:45:25 59° ESE 15:51:20 10° NE daylight
15 Dec - 17:26:32 10° WSW 17:32:06 35° NW 17:37:34 10° NNE visible
15 Dec - 19:17:00 10° NW 19:20:20 15° NNW 19:23:37 10° NNE visible
15 Dec - 21:06:20 10° NNW 21:09:23 14° NNE 21:12:23 10° NE visible
15 Dec - 22:52:31 10° NNW 22:57:44 31° NE 23:02:52 10° E night (unlit)
16 Dec - 00:38:43 10° NW 00:44:32 66° WSW 00:50:16 10° SSE night (unlit)
16 Dec - 02:28:14 10° W 02:29:43 11° W 02:31:11 10° WSW night (unlit)
16 Dec - 14:05:39 10° SE 14:09:13 16° ESE 14:12:44 10° ENE daylight
16 Dec - 15:48:32 10° SSW 15:54:42 82° ESE 16:00:44 10° NE daylight
16 Dec - 17:36:34 10° W 17:41:44 28° NW 17:46:49 10° NNE visible
16 Dec - 19:27:21 10° NW 19:30:14 13° N 19:33:05 10° NNE visible
16 Dec - 21:15:46 10° NNW 21:19:15 16° NNE 21:22:44 10° NE visible
16 Dec - 23:01:46 10° NNW 23:07:19 40° NE 23:12:46 10° ESE night (unlit)
17 Dec - 00:48:12 10° NW 00:53:45 46° WSW 00:59:15 10° S night (unlit)
17 Dec - 14:13:31 10° SSE 14:18:15 23° ESE 14:22:53 10° ENE daylight
17 Dec - 15:57:54 10° SW 16:04:03 74° NW 16:10:05 10° NNE daylight
17 Dec - 17:46:43 10° W 17:51:25 23° NNW 17:56:03 10° NNE visible
17 Dec - 19:37:34 10° NNW 19:40:10 13° N 19:42:44 10° NNE visible
17 Dec - 21:25:05 10° NNW 21:29:05 18° NNE 21:33:04 10° ENE visible
17 Dec - 23:11:03 10° NNW 23:16:50 54° NE 23:22:30 10° SE night (unlit)
18 Dec - 00:57:49 10° NW 01:02:54 32° WSW 01:07:57 10° S night (unlit)
18 Dec - 14:21:56 10° S 14:27:21 33° ESE 14:32:41 10° NE daylight
18 Dec - 16:07:28 10° SW 16:13:30 55° NW 16:19:23 10° NNE daylight
18 Dec - 17:57:01 10° WNW 18:01:12 19° NNW 18:05:18 10° NNE visible
18 Dec - 19:47:33 10° NNW 19:50:06 13° N 19:52:39 10° NNE visible
18 Dec - 21:34:21 10° NNW 21:38:52 22° NNE 21:43:19 10° E visible
18 Dec - 23:20:21 10° NNW 23:26:15 74° NE 23:32:03 10° SE night (unlit)
19 Dec - 01:07:39 10° WNW 01:11:59 22° WSW 01:16:18 10° SSW night (unlit)
19 Dec - 14:30:40 10° S 14:36:31 47° ESE 14:42:15 10° NE daylight
19 Dec - 16:17:14 10° WSW 16:23:00 41° NW 16:28:38 10° NNE daylight
19 Dec - 18:07:24 10° WNW 18:11:01 16° NNW 18:14:37 10° NNE visible
19 Dec - 19:57:16 10° NNW 20:00:02 13° N 20:02:48 10° NE visible
19 Dec - 21:43:36 10° NNW 21:48:34 27° NE 21:53:27 10° E visible
19 Dec - 23:29:42 10° NW 23:35:35 81° WSW 23:41:24 10° SSE night (unlit)
20 Dec - 01:17:55 10° WNW 01:20:59 15° WSW 01:24:03 10° SW night (unlit)
20 Dec - 12:58:14 10° ESE 13:00:29 12° E 13:02:42 10° E daylight
20 Dec - 14:39:40 10° SSW 14:45:46 67° ESE 14:51:43 10° NE daylight
20 Dec - 16:27:09 10° WSW 16:32:34 32° NW 16:37:53 10° NNE daylight
20 Dec - 18:17:46 10° NW 18:20:54 14° NNW 18:24:00 10° NNE visible
20 Dec - 20:06:46 10° NNW 20:09:57 15° NNE 20:13:05 10° NE visible
20 Dec - 21:52:52 10° NNW 21:58:12 34° NE 22:03:27 10° ESE visible
20 Dec - 23:39:08 10° NW 23:44:52 58° WSW 23:50:32 10° SSE night (unlit)
